Погода в Оловянной

Россия / Забайкальский край     50°56′32″N   115°34′32″E
темп.,
°C
ветер,
м/с
пор.,
м/с
влажн.,
%
обл.,
%
осадки,
мм/ч
давл.,
гПа
погр.,
м
29 июня, ср
ср2900:00+22ю11532 0.0 100211
03:00+20юз11570 0.0 100311
06:00+21вюв115734 0.0 100311
09:00+26ююв114473 0.0 1004338
12:00+30ю21335 0.0 10031116
15:00+33ссв02255 0.0 10022866
18:00+33всв43240 0.0 10012542
21:00+27ююв22437 0.0 100214
30 июня, чт
чт3000:00+24в11445 0.0 100311
03:00+22в11475 0.0 100411
06:00+21вюв22545 0.0 100512
09:00+28ююв35393 0.0 1005481
12:00+33ю442722 0.0 10041674
15:00+34ю332291 0.0 10033598
18:00+29юв333295 0.0 100243
21:00+26вюв7144546 0.0 1003343
1 июля, пт
пт100:00+22ююв48546 0.0 1004171
03:00+20юв236369 0.0 100554
06:00+20юв24665 0.0 100567
09:00+26ююв57485 0.0 1005567
12:00+31ю773319 0.0 10041419
15:00+33ю662813 0.0 10021927
18:00+31юв10103559 0.0 1001796
21:00+24юв4951100 0.0 1001157
2 июля, сб
сб200:00+21сз236574 0.6 100333
03:00+19всв1180100 2.3 100311
06:00+19всв2282100 2.4 100338
09:00+22в1268100 3.4 1003276
12:00+25ююв225399 0.0 10021020
15:00+29сз234412 0.0 10001583
18:00+30сз34402 0.0 9991764
21:00+26всв335767 0.0 99931
3 июля, вс
вс300:00+23св2262100 0.0 100015
03:00+21св2271100 0.0 100018
06:00+20ссв2275100 0.0 100030
09:00+25св335798 0.0 1000353
12:00+30в2340100 0.0 9981257
15:00+34вюв2329100 0.0 9962574
18:00+34в652884 0.0 9941545
21:00+25в4105786 0.1 995218